Temperature
18 18 18 18 18 18 18 18 18 18 18 18 18 18 18 18 18 18 18 18 18 17 17 17 17 17 17 17 17 17 17 16 16 16 16 16 16 16
18 18 18 18 18 18 18 18 18 18 18 18 18 18 18 18 18 18 18 18 17 17 17 17 17 17 17 17 17 16 16 16 16 16 16 16 16 16
17 17 17 17 17 18 18 18 18 18 17 18 18 18 18 18 18 17 17 17 17 17 17 17 17 16 16 16 16 16 16 16 16 16 16 16 15 15
17 17 17 17 17 17 17 17 17 17 17 17 17 17 17 17 17 17 17 17 17 17 17 17 16 16 16 16 16 16 16 16 16 16 16 16 15 15
17 17 17 17 17 17 17 17 17 17 17 17 17 17 17 17 16 16 16 16 16 16 16 16 16 16 16 16 15 16 15 15 15 15 15 15 15 15
16 16 17 17 17 17 17 17 17 16 16 16 16 16 16 16 16 16 16 16 16 16 16 16 16 16 15 15 15 15 15 15 15 15 15 15 15 15
16 16 16 16 16 16 16 16 16 16 16 16 16 16 16 16 16 16 15 15 15 15 15 16 15 15 15 15 15 15 15 15 15 15 14 14 14 14
16 16 16 16 16 16 16 16 16 16 16 15 15 15 15 15 15 15 15 15 15 15 15 15 15 15 15 15 15 15 15 15 14 14 14 14 14 14
16 16 15 16 16 16 16 16 16 15 15 15 15 15 15 15 15 15 15 14 14 15 14 14 14 14 15 15 15 15 14 14 14 14 14 14 14 13
15 15 15 15 15 15 15 15 15 15 15 15 15 15 15 15 15 14 14 14 14 14 14 14 14 14 14 14 14 14 14 14 14 13 13 13 13 13
15 15 15 15 15 15 15 15 15 15 14 14 14 14 14 14 14 14 14 14 14 14 14 14 14 14 13 13 14 14 13 13 13 13 13 13 13 12
15 15 15 15 15 15 15 14 14 14 14 14 14 14 14 14 14 14 13 13 13 13 13 13 13 13 13 13 13 13 13 13 13 13 13 12 12 12
14 14 14 14 14 14 14 14 14 14 13 13 13 13 13 14 13 13 13 13 13 13 13 13 13 12 12 12 12 13 13 12 12 12 12 12 12 12
14 14 14 14 14 14 14 14 14 13 13 13 13 13 13 13 13 13 13 13 13 13 13 12 12 12 12 12 12 12 12 12 12 12 12 12 11 11
14 14 13 13 13 13 13 13 13 13 13 13 13 13 13 13 13 13 13 12 12 12 12 12 12 12 12 12 11 11 11 11 11 11 11 11 11 11
13 13 13 13 13 13 13 13 13 12 12 12 12 12 12 12 12 12 12 12 12 12 12 12 12 12 12 11 11 11 11 11 11 11 11 10 10 10
13 13 13 12 12 12 12 12 12 12 12 12 12 12 12 12 12 12 12 12 12 12 12 12 11 11 11 11 11 11 11 11 10 10 10 10 10 10
12 12 12 12 11 11 11 11 12 11 11 11 11 11 11 11 11 11 11 11 11 11 11 11 11 11 11 11 11 11 11 10 10 10 10 10 10 10
12 12 11 11 11 11 11 11 11 11 11 11 11 11 11 11 11 11 11 11 11 11 11 11 11 11 10 10 10 10 10 10 10 10 10 9 9 9
11 11 11 11 11 10 10 11 11 11 11 11 10 10 10 10 11 11 11 11 11 10 10 10 10 10 10 10 10 10 10 10 10 10 9 9 9 9
11 11 10 10 10 10 10 10 10 10 10 10 10 10 10 10 10 10 10 10 10 10 10 10 10 10 10 10 10 9 9 9 9 9 9 9 9 9
11 10 10 10 10 10 10 10 10 10 10 9 9 9 9 9 9 9 9 9 9 9 9 9 9 9 9 9 9 9 9 9 9 9 9 9 9 8
10 10 10 10 10 9 9 9 9 9 9 9 9 9 9 9 9 9 9 9 9 9 9 9 9 9 9 9 9 9 9 9 9 9 9 9 8 8
Wind_Speed
5 5 5 5 5 4 3 3 4 5 5 4 3 3 2 3 7 7 6 9 12 13 13 13 12 12 12 11 11 11 11 11 11 11 11 11 10 10
4 4 4 4 4 4 3 3 4 4 4 3 3 2 2 3 5 5 6 9 12 13 14 13 13 13 13 12 12 12 11 10 10 10 10 10 10 10
4 4 5 4 4 4 3 3 4 3 5 4 2 2 2 3 2 4 7 8 9 13 14 14 13 13 13 12 12 12 11 10 10 10 10 10 9 9
4 4 5 5 5 4 3 4 4 4 4 5 4 3 4 3 4 5 6 6 6 11 14 15 14 14 13 12 12 11 11 10 10 10 9 9 9 9
4 4 5 5 5 4 4 4 4 4 3 5 5 4 3 3 4 5 5 3 6 6 10 12 14 14 13 12 12 11 10 10 10 9 9 9 9 9
4 4 4 5 5 5 5 4 4 3 3 4 5 4 2 2 2 3 4 3 4 4 4 6 9 11 11 11 12 11 11 11 10 10 9 9 9 9
4 4 4 3 3 4 4 3 3 3 4 4 4 3 2 2 2 3 4 4 4 2 2 3 4 4 6 8 10 11 11 11 11 11 10 10 9 9
4 4 5 5 4 4 5 4 4 5 4 4 3 3 3 3 3 4 3 3 3 2 2 4 3 3 4 5 9 11 11 11 11 11 11 10 10 9
5 5 6 4 2 2 3 4 4 5 5 4 4 4 4 3 4 5 4 4 5 4 3 4 3 3 3 4 9 10 11 11 11 11 11 11 11 10
5 6 5 3 2 1 3 3 4 4 4 4 4 4 4 3 4 5 5 5 4 2 1 3 2 3 3 2 7 10 9 9 10 11 11 11 10 10
5 5 5 3 2 1 2 3 4 3 2 3 4 4 4 4 3 3 3 3 3 2 1 1 2 3 2 1 3 7 8 9 9 9 9 9 10 9
4 3 4 3 3 3 3 3 4 4 4 3 3 4 5 5 4 4 3 3 3 2 0 1 2 2 2 1 0 2 4 5 7 7 8 9 9 6
3 2 2 3 4 4 3 3 4 4 4 4 4 4 3 3 3 3 3 3 3 2 1 1 2 2 2 2 2 1 2 2 3 4 6 7 7 6
3 2 1 4 5 4 3 4 4 3 4 4 4 3 2 2 3 3 4 4 4 4 3 2 1 1 2 3 2 2 2 2 2 2 3 5 6 8
3 2 2 4 4 4 5 5 3 3 4 4 3 3 3 3 3 2 2 2 3 3 3 2 2 2 2 3 3 2 2 2 2 2 2 2 3 3
2 2 2 4 3 4 3 3 3 4 4 4 3 3 2 2 1 1 1 2 2 3 3 4 4 3 3 3 3 3 2 2 2 2 2 2 2 3
2 1 1 2 2 2 2 2 2 3 3 3 3 3 2 2 2 1 2 2 2 2 2 2 2 3 3 3 3 3 3 2 2 2 2 2 3 3
0 1 1 2 2 3 2 3 2 2 2 2 2 2 2 2 3 2 2 2 3 3 2 2 1 1 2 2 2 2 2 3 3 2 2 2 3 3
1 1 1 2 2 2 2 2 2 2 2 2 2 2 2 2 2 2 2 2 2 2 1 1 1 1 2 3 3 2 3 3 3 2 2 2 3 3
1 1 2 2 2 2 2 2 2 2 1 1 1 1 1 1 1 1 1 2 2 1 1 1 2 2 3 4 3 3 4 4 3 3 3 2 2 3
1 1 2 2 2 2 2 2 2 2 2 2 1 0 1 1 2 2 1 1 1 1 2 2 2 3 2 2 2 3 3 3 3 3 3 2 3 3
1 1 1 1 1 2 2 2 2 2 2 2 1 1 1 1 2 1 1 1 1 2 2 2 2 2 1 2 3 3 3 3 3 3 3 3 2 2
1 1 1 1 1 1 1 2 2 2 2 2 2 1 2 2 1 1 1 1 2 2 2 2 2 2 2 2 2 2 3 3 3 2 2 3 4 4
Wind_Direction
240 245 248 258 257 253 243 229 232 247 251 240 232 225 190 177 189 193 198 205 209 215 221 224 227 229 233 236 238 241 245 247 249 251 254 252 252 250
229 232 239 255 258 254 242 239 242 244 253 248 240 232 222 229 212 207 214 217 217 217 222 224 226 229 231 233 236 238 240 243 247 249 250 249 246 246
243 234 235 242 255 261 252 242 242 242 253 267 261 259 250 239 225 232 235 219 221 221 221 223 225 228 230 232 233 235 238 240 244 246 246 243 241 242
249 249 251 248 250 260 262 257 250 240 247 263 264 262 253 240 232 241 245 235 229 225 221 222 223 225 228 230 231 232 233 235 239 242 244 243 242 242
253 247 252 256 257 257 254 259 261 260 245 252 258 251 249 244 246 256 258 246 252 235 223 226 226 226 227 227 228 228 227 231 236 239 240 244 245 246
260 257 256 255 254 258 256 257 262 267 260 258 260 260 246 241 238 261 270 260 260 263 237 234 229 227 228 225 223 223 224 226 230 234 237 240 242 243
266 262 262 253 249 253 258 263 262 259 260 260 263 269 265 265 253 262 268 269 265 253 255 257 231 220 223 228 223 220 221 224 227 230 233 235 237 239
270 267 262 249 238 234 240 244 249 250 253 258 264 264 271 264 258 261 264 272 268 242 254 260 232 224 228 219 214 216 218 222 225 227 229 229 230 232
260 261 269 262 254 248 239 237 250 256 250 250 262 267 270 272 266 264 259 261 263 255 248 259 244 243 255 233 205 206 213 220 224 227 230 231 232 232
259 255 251 243 250 280 278 261 257 257 251 248 250 261 273 272 260 256 258 258 262 257 227 255 269 274 281 236 206 200 206 217 227 230 231 232 235 239
255 250 237 225 202 220 250 265 271 275 266 254 248 242 247 255 264 276 275 269 274 259 213 250 280 296 277 245 222 210 216 224 228 231 232 233 238 241
248 238 233 199 190 214 231 251 261 269 278 278 263 250 245 243 236 228 243 261 278 274 238 241 278 304 296 286 234 237 226 229 230 231 235 238 235 230
274 250 224 180 188 210 238 252 256 271 270 261 256 249 240 232 224 211 214 221 250 264 279 245 278 280 262 288 300 246 220 218 220 226 236 242 237 225
285 284 253 214 214 220 231 255 260 277 269 262 258 254 249 242 228 219 209 212 219 236 254 229 253 272 275 285 293 296 281 244 215 213 220 233 245 246
295 293 251 228 226 228 240 246 249 256 256 256 258 260 256 243 222 220 214 219 234 259 263 213 211 240 252 265 274 286 285 267 223 223 218 227 232 232
306 303 246 218 228 245 240 235 242 252 257 255 254 253 255 257 223 199 208 225 247 268 260 236 219 216 244 256 260 274 275 261 263 242 230 237 240 235
296 262 269 252 242 248 254 257 253 251 253 259 264 265 260 256 255 240 222 226 228 251 271 250 234 236 249 255 262 267 279 283 277 271 252 260 253 240
76 267 282 281 278 265 258 261 258 254 256 250 250 253 253 254 256 252 240 231 236 245 255 254 219 239 277 298 251 259 288 289 286 270 255 272 279 275
58 289 282 278 284 293 292 281 275 260 245 248 251 256 259 259 257 258 249 248 247 255 271 274 260 248 274 288 294 267 261 274 277 277 263 261 266 278
294 295 309 311 305 302 317 330 326 336 335 300 267 259 267 267 264 272 270 258 257 263 294 307 308 297 270 269 274 288 263 247 256 264 276 278 268 270
280 285 296 308 325 337 347 346 342 348 341 323 311 299 304 302 297 286 279 286 270 278 287 290 289 280 265 267 267 276 281 259 250 251 258 270 284 290
270 294 322 340 347 347 338 336 335 330 324 327 339 353 327 301 283 280 294 293 278 274 280 283 291 296 282 273 272 280 285 293 287 274 250 236 245 261
15 1 354 341 339 340 344 332 328 334 349 360 3 359 334 315 292 284 289 295 303 313 322 328 330 316 300 281 278 282 295 295 297 295 288 278 252 255
Height
1527 1528 1529 1529 1530 1530 1531 1531 1532 1531 1530 1530 1530 1530 1530 1529 1529 1529 1529 1528 1528 1528 1528 1527 1527 1527 1526 1526 1526 1525 1525 1525 1525 1524 1524 1524 1524 1524
1524 1524 1524 1525 1525 1526 1527 1527 1528 1528 1526 1526 1526 1526 1526 1526 1524 1524 1524 1524 1523 1523 1523 1523 1522 1522 1521 1521 1521 1521 1520 1520 1520 1520 1519 1519 1519 1519
1521 1521 1521 1522 1522 1522 1522 1523 1523 1524 1523 1522 1522 1522 1522 1522 1521 1520 1520 1519 1519 1519 1518 1518 1518 1518 1517 1516 1516 1516 1516 1515 1515 1515 1514 1514 1514 1514
1517 1518 1518 1518 1518 1518 1518 1518 1519 1519 1519 1518 1517 1518 1518 1517 1517 1516 1516 1515 1515 1514 1514 1513 1513 1513 1512 1512 1511 1511 1511 1511 1510 1510 1510 1509 1509 1509
1514 1514 1514 1514 1514 1514 1514 1515 1515 1515 1515 1515 1513 1514 1513 1513 1512 1512 1511 1511 1510 1510 1509 1509 1508 1508 1507 1507 1507 1506 1506 1506 1505 1505 1505 1505 1504 1504
1510 1510 1510 1510 1510 1510 1511 1511 1511 1511 1511 1510 1510 1509 1509 1508 1508 1507 1506 1506 1505 1505 1504 1504 1503 1503 1502 1502 1502 1502 1501 1501 1500 1500 1500 1500 1500 1500
1506 1506 1506 1506 1506 1506 1507 1507 1507 1507 1507 1506 1505 1505 1504 1504 1503 1503 1502 1501 1501 1500 1499 1499 1499 1498 1498 1497 1497 1497 1496 1496 1496 1496 1495 1495 1495 1495
1501 1501 1502 1502 1501 1502 1502 1502 1503 1503 1502 1502 1501 1500 1500 1500 1499 1499 1498 1497 1496 1496 1495 1495 1495 1494 1493 1493 1493 1493 1492 1492 1491 1491 1491 1491 1491 1490
1497 1497 1497 1498 1497 1498 1498 1498 1498 1498 1499 1498 1497 1496 1496 1495 1495 1495 1494 1493 1492 1492 1492 1491 1491 1490 1490 1489 1489 1488 1488 1488 1487 1487 1487 1486 1486 1486
1493 1493 1493 1493 1493 1493 1493 1493 1493 1493 1494 1494 1493 1492 1492 1491 1491 1491 1490 1489 1489 1488 1488 1488 1487 1486 1486 1485 1485 1484 1484 1484 1483 1483 1482 1482 1482 1481
1489 1489 1489 1489 1489 1489 1489 1489 1489 1489 1489 1489 1489 1488 1488 1487 1487 1487 1486 1485 1485 1484 1484 1484 1483 1483 1482 1481 1481 1481 1480 1480 1479 1479 1478 1478 1478 1477
1485 1485 1485 1485 1485 1485 1485 1484 1484 1484 1484 1484 1484 1484 1483 1483 1483 1483 1482 1482 1481 1481 1481 1481 1480 1479 1478 1478 1477 1477 1476 1476 1475 1475 1474 1473 1473 1472
1482 1481 1481 1481 1481 1481 1481 1480 1480 1480 1480 1480 1479 1479 1479 1479 1479 1479 1478 1478 1478 1478 1478 1477 1477 1476 1476 1475 1474 1474 1473 1472 1472 1471 1470 1470 1469 1469
1478 1478 1478 1477 1477 1477 1476 1476 1476 1476 1476 1476 1476 1475 1475 1475 1475 1475 1475 1475 1475 1475 1475 1474 1474 1473 1472 1471 1471 1470 1470 1469 1468 1467 1466 1466 1465 1465
1474 1474 1474 1474 1473 1473 1473 1472 1472 1471 1471 1471 1471 1471 1471 1472 1472 1472 1472 1472 1471 1471 1471 1470 1470 1470 1470 1468 1468 1467 1466 1465 1465 1464 1463 1462 1461 1460
1470 1470 1470 1470 1470 1469 1469 1468 1467 1467 1467 1467 1467 1467 1468 1468 1468 1468 1468 1468 1468 1468 1468 1467 1467 1467 1466 1465 1465 1463 1463 1462 1461 1460 1459 1458 1457 1456
1467 1467 1466 1466 1465 1465 1465 1464 1463 1463 1463 1463 1463 1463 1464 1464 1464 1464 1465 1464 1464 1464 1464 1464 1463 1463 1462 1462 1461 1460 1460 1459 1458 1457 1456 1454 1453 1452
1465 1464 1463 1463 1463 1462 1461 1461 1460 1459 1459 1459 1459 1459 1460 1460 1460 1460 1461 1461 1461 1461 1461 1460 1460 1459 1459 1459 1459 1458 1457 1456 1455 1454 1453 1451 1449 1449
1462 1462 1461 1461 1460 1459 1459 1458 1457 1456 1456 1456 1456 1456 1456 1457 1457 1457 1457 1458 1458 1458 1458 1458 1457 1456 1455 1455 1455 1455 1454 1453 1452 1451 1450 1448 1447 1445
1461 1460 1460 1459 1458 1457 1456 1455 1454 1454 1453 1453 1453 1454 1454 1454 1454 1454 1454 1454 1454 1454 1454 1454 1454 1453 1452 1452 1451 1451 1451 1450 1449 1447 1446 1445 1444 1443
1460 1459 1458 1457 1456 1454 1453 1452 1452 1451 1451 1450 1450 1451 1451 1451 1451 1452 1452 1452 1452 1452 1451 1451 1451 1450 1449 1449 1448 1447 1448 1447 1446 1444 1443 1441 1440 1438
1458 1458 1457 1456 1455 1454 1452 1451 1451 1450 1449 1449 1448 1449 1449 1449 1449 1450 1450 1450 1449 1449 1448 1448 1447 1447 1446 1446 1445 1444 1444 1443 1443 1442 1441 1439 1438 1435
1456 1456 1455 1455 1454 1452 1451 1450 1449 1448 1448 1448 1447 1447 1447 1448 1448 1448 1448 1447 1447 1447 1446 1445 1445 1445 1444 1443 1443 1442 1441 1440 1439 1438 1438 1437 1436 1435